Temperature
22 19 18 19 19 20 21 21 21 22 22 21 19 18 18 17 17 17 16 15 15 15 15 15 15 15 15 15 16 16 16 16 16 16 16 16 16 16 16 16 16 16 16 16
19 19 20 21 21 22 21 21 21 21 22 21 18 18 18 17 17 17 16 15 15 14 14 14 14 14 15 15 15 15 16 16 16 16 16 16 16 16 16 15 16 16 16 16
19 20 22 22 22 22 22 21 21 21 21 21 19 18 17 17 17 17 16 15 15 14 14 14 14 14 14 14 14 15 15 15 15 15 15 15 15 15 15 15 15 15 15 15
20 21 23 23 22 22 21 22 22 22 20 19 19 17 16 16 16 16 15 15 14 14 14 13 13 13 13 13 13 14 14 14 14 14 14 14 14 14 14 14 14 15 15 15
20 22 23 22 23 23 22 22 22 21 19 18 17 16 16 16 16 15 15 15 14 14 13 13 13 13 12 12 13 13 13 13 13 14 14 14 13 13 13 13 13 14 14 14
21 23 23 23 24 24 23 21 19 17 16 17 17 17 16 15 16 16 15 14 13 13 13 13 12 12 12 12 12 12 12 12 12 13 13 13 13 13 13 13 13 13 13 13
21 22 23 23 23 22 21 18 17 17 15 16 16 16 16 16 16 16 15 14 13 13 13 12 12 12 12 11 11 11 11 12 12 12 12 12 12 12 12 12 12 12 12 12
19 19 21 22 22 21 20 18 17 17 16 16 16 16 15 16 16 16 15 14 13 13 12 12 12 12 11 11 10 11 11 11 11 11 11 11 11 11 11 11 11 11 11 11
19 19 22 23 23 22 20 18 17 16 16 15 15 15 15 15 15 14 14 13 12 12 12 12 11 11 11 10 10 10 10 10 10 10 10 10 10 10 10 10 10 10 10 11
19 20 21 22 22 20 20 18 16 16 16 15 16 15 15 15 14 14 13 12 12 12 12 11 11 11 10 10 9 9 9 9 9 9 9 9 9 9 9 9 9 10 10 10
19 18 19 20 19 19 19 18 16 15 15 15 15 15 16 15 14 13 13 12 12 12 11 11 11 10 10 9 9 9 9 9 9 9 9 9 9 9 9 9 9 9 9 9
18 16 17 18 19 20 19 18 17 16 16 15 15 15 16 15 14 13 12 12 12 11 11 11 10 10 9 9 9 9 9 9 8 8 8 8 8 8 8 8 8 8 9 9
18 16 16 17 17 18 18 19 17 15 14 14 15 15 14 14 13 13 12 12 11 11 11 10 10 9 9 9 8 8 8 8 8 8 8 8 8 8 8 8 8 8 8 8
18 16 16 16 16 17 18 18 18 16 14 15 15 15 14 13 12 12 12 11 11 11 10 10 10 9 9 8 8 8 8 8 8 8 8 7 7 7 7 7 7 7 8 8
16 16 17 17 18 18 18 18 18 17 16 16 16 15 14 13 12 12 11 11 10 10 10 10 9 9 9 8 8 8 8 8 7 7 7 7 7 7 7 7 7 7 7 7
14 16 16 17 18 18 17 17 17 17 17 16 15 14 13 12 12 11 11 11 10 10 10 9 9 9 8 8 8 8 7 7 7 7 7 7 7 7 7 7 7 7 7 7
14 15 15 15 17 17 15 15 16 15 15 15 14 13 12 12 11 11 11 10 10 10 9 9 9 9 8 8 8 8 7 7 7 7 7 7 7 7 7 7 7 7 7 7
14 14 13 14 15 15 15 15 15 15 14 14 13 13 12 12 11 11 11 11 10 10 9 9 9 9 8 8 8 7 7 7 7 7 7 7 7 6 6 6 6 6 6 7
14 14 14 13 14 15 15 15 15 14 13 13 13 12 11 11 11 10 11 11 10 10 9 9 9 8 8 8 7 7 7 7 7 7 7 6 6 6 6 6 6 6 6 6
14 13 13 13 14 14 14 15 15 14 13 13 12 11 11 11 10 9 10 10 10 9 9 9 8 8 8 7 7 7 7 7 7 6 6 6 6 6 6 6 6 6 6 6
14 13 13 13 13 14 14 15 15 14 12 13 12 12 12 11 10 10 10 10 9 9 9 8 8 8 7 7 7 7 7 7 6 6 6 6 6 6 6 6 6 6 6 6
13 13 13 12 13 13 14 14 13 12 13 13 13 12 12 11 10 10 10 9 9 8 8 8 8 7 7 7 7 7 7 7 6 6 6 6 6 6 6 6 6 6 6 6
12 12 11 12 12 13 14 13 14 14 13 13 12 12 11 10 10 9 9 9 8 8 8 7 7 7 7 7 7 7 7 6 6 6 6 6 6 6 6 6 6 6 6 6
13 13 12 12 12 13 13 14 14 14 13 13 12 12 11 10 10 9 9 8 8 8 8 7 7 7 7 7 7 7 7 6 6 6 6 6 6 6 6 6 6 6 6 6
13 13 12 12 12 13 14 14 13 13 13 12 12 11 11 10 9 9 8 8 8 8 7 7 7 7 7 7 7 7 6 6 6 6 6 6 6 6 6 6 6 6 6 6
12 12 11 11 13 12 13 13 13 13 12 12 11 10 10 10 9 9 8 8 8 8 7 7 7 7 7 7 7 6 6 6 6 6 6 6 6 6 6 6 6 6 6 6
Wind_Speed
2 3 4 8 6 6 4 4 5 6 4 5 9 10 10 9 10 12 12 12 11 10 7 7 6 7 7 6 6 6 6 5 4 2 1 1 1 1 2 2 3 2 2 2
4 5 11 9 7 6 4 4 5 6 0 5 9 8 6 7 9 12 14 13 13 11 9 7 7 7 7 7 6 6 5 5 5 3 2 1 0 2 2 2 4 4 4 3
7 9 7 6 7 5 5 5 4 1 4 8 9 4 4 4 6 8 10 11 12 13 11 9 7 7 8 8 7 7 6 7 7 6 4 3 3 3 3 4 3 4 5 5
6 8 5 4 5 3 3 4 4 3 5 2 4 3 1 5 5 7 9 10 10 11 11 9 8 8 8 7 7 7 7 7 7 7 6 5 4 3 3 2 2 4 5 6
6 4 2 2 4 3 4 2 3 4 6 4 5 5 2 3 6 9 10 11 11 12 11 10 9 8 8 7 7 6 7 7 7 8 7 7 6 4 3 3 5 5 5 6
6 4 1 3 2 1 3 5 7 6 5 4 1 3 3 4 7 10 11 13 13 12 12 10 9 9 8 7 7 6 7 7 7 8 8 7 7 6 6 6 5 5 4 5
6 5 4 2 4 6 6 6 5 6 5 1 2 2 3 5 4 10 14 13 12 12 11 11 10 9 7 7 7 6 7 7 7 8 8 8 7 7 6 5 5 4 4 4
3 5 5 3 0 1 1 7 7 3 2 2 3 1 4 2 3 8 12 14 13 11 10 11 10 9 8 7 6 6 6 6 6 7 7 7 7 5 5 5 4 4 3 3
2 4 5 3 1 4 3 2 6 6 3 2 2 2 3 3 7 10 12 13 12 11 11 11 10 9 8 7 5 5 6 6 6 6 6 6 6 6 5 5 4 4 3 4
3 2 5 4 5 6 4 5 6 5 4 1 2 3 4 4 6 9 10 11 11 11 11 11 9 8 7 6 5 5 5 5 5 5 5 5 5 5 5 5 5 5 5 5
4 2 6 5 3 2 4 4 5 3 5 5 3 5 5 8 9 10 10 10 11 12 12 11 9 8 7 6 5 5 5 5 5 5 5 5 5 5 5 5 5 5 6 6
2 4 2 4 3 1 4 3 4 3 2 3 4 4 3 7 9 10 10 9 9 11 11 11 9 8 7 6 5 4 4 4 4 4 4 5 5 5 6 6 6 6 6 6
3 5 3 7 6 6 4 1 2 4 3 3 4 3 1 7 10 10 11 10 10 11 11 10 8 7 7 5 4 4 4 4 3 4 4 5 5 5 5 5 5 6 6 7
4 4 4 4 5 4 3 4 1 3 2 2 4 5 4 6 8 9 10 11 11 11 11 10 7 6 6 5 5 4 3 3 4 4 5 5 5 5 5 5 6 6 6 7
5 3 1 2 3 2 4 6 5 1 2 4 4 6 8 9 10 11 10 11 12 12 12 10 8 6 6 6 4 4 4 3 4 4 4 4 4 5 6 6 7 7 7 8
5 3 4 4 3 4 7 11 7 5 4 4 5 3 3 7 7 9 10 12 12 12 11 10 9 8 7 6 5 4 4 3 4 4 3 3 4 5 6 6 6 7 7 7
3 3 3 3 5 3 6 8 6 6 5 3 2 3 7 7 8 9 10 12 12 11 11 10 8 7 7 6 5 4 3 3 4 4 4 4 5 5 5 6 6 7 6 7
3 2 2 2 5 3 1 3 5 6 6 6 7 7 7 7 6 5 7 10 11 11 10 9 8 6 5 5 5 5 4 4 4 4 4 4 5 5 5 6 6 6 5 6
5 4 3 2 2 0 1 4 3 2 4 4 7 8 7 8 7 5 4 7 8 9 8 7 7 6 6 5 5 5 4 4 4 4 4 4 4 5 5 5 5 4 5 6
4 5 4 2 1 0 3 7 4 4 3 1 6 7 7 6 4 3 5 8 9 9 7 7 6 6 6 5 6 6 5 4 4 3 4 4 4 4 4 4 4 4 4 5
4 4 3 2 1 1 5 9 3 3 2 2 4 6 6 3 3 7 9 9 9 8 7 7 7 6 5 5 6 6 5 4 3 4 4 5 4 4 4 4 3 4 5 6
3 3 2 2 2 2 6 5 3 2 1 4 5 5 6 7 9 9 10 9 9 8 7 6 6 5 4 6 7 6 5 4 4 5 5 5 4 3 4 5 4 4 5 6
3 2 3 3 3 3 2 2 0 3 4 3 5 6 9 9 9 9 9 9 8 8 7 6 7 6 4 5 6 6 4 5 6 6 6 5 5 5 5 4 4 4 4 4
3 2 3 3 2 1 2 3 3 5 5 5 7 8 9 9 9 9 9 8 7 6 6 6 7 6 4 4 5 5 6 6 7 6 5 5 6 6 6 5 4 4 3 4
2 2 3 2 1 2 4 3 4 6 8 8 8 8 9 10 9 9 8 8 7 6 5 6 7 6 5 5 5 5 6 7 6 5 5 5 5 5 5 5 5 4 2 2
2 2 3 3 4 2 2 2 5 7 7 9 9 8 7 8 9 8 8 7 6 6 6 6 6 6 6 6 5 5 6 7 7 5 4 4 4 4 4 5 5 8 6 7
Wind_Direction
299 58 263 248 228 215 234 255 269 269 244 125 133 141 158 162 151 142 139 138 134 131 123 109 95 84 74 62 54 43 34 13 12 1 7 41 69 76 72 74 81 89 104 129
14 266 245 246 261 250 245 264 281 294 248 121 122 127 147 152 154 145 144 144 138 131 122 109 95 83 76 68 61 51 38 23 17 3 337 322 95 76 75 55 51 51 57 64
215 246 253 247 263 255 256 218 234 246 59 88 104 70 93 118 118 127 134 138 138 138 131 119 99 82 74 67 59 56 38 27 19 10 13 26 43 46 41 36 27 23 45 52
247 255 263 268 267 201 253 226 194 154 94 95 120 134 192 164 144 142 141 139 140 134 127 118 107 92 82 72 61 53 39 34 25 23 36 48 59 58 34 27 34 21 36 40
277 269 270 279 258 168 213 192 98 115 120 85 40 116 224 172 167 169 160 147 139 134 128 120 113 103 92 81 68 53 44 38 34 37 41 53 53 47 36 36 39 30 21 25
262 277 214 238 280 136 122 60 48 53 75 80 317 126 204 219 205 176 164 151 144 136 126 118 109 99 87 76 68 58 53 43 37 45 45 52 57 52 48 37 34 25 18 13
333 330 332 6 12 9 62 78 38 18 27 257 281 120 230 256 236 174 160 149 143 136 129 122 111 101 91 79 70 62 60 49 40 47 46 47 55 56 51 41 37 28 15 5
14 321 320 354 212 214 66 124 142 166 205 274 356 314 275 295 121 130 138 137 136 132 128 122 117 111 102 92 78 67 62 54 46 50 48 47 51 54 47 40 37 28 10 353
124 286 304 333 6 125 95 85 150 128 111 81 319 297 302 76 104 120 128 129 133 132 127 122 117 109 104 96 86 76 69 58 48 46 50 47 46 49 45 36 33 23 6 1
117 309 318 335 34 33 124 136 81 100 134 165 282 263 231 191 148 138 137 132 132 131 127 121 117 113 105 96 88 76 73 68 55 47 49 54 42 43 42 37 31 22 12 7
72 69 333 8 36 359 39 58 81 102 142 148 210 261 224 187 162 152 145 141 141 140 132 125 121 118 110 101 92 84 76 68 60 53 51 49 38 36 38 34 26 23 21 21
75 102 337 299 279 153 119 125 128 143 218 168 172 258 297 154 138 137 138 137 137 134 129 126 124 118 112 109 100 89 79 74 69 62 56 49 38 37 35 29 22 24 25 24
92 90 30 348 346 1 33 38 149 142 134 161 167 240 39 118 127 136 139 138 134 132 129 123 121 121 120 116 105 93 85 80 72 66 60 46 38 39 35 27 26 30 36 35
98 92 144 196 252 294 327 337 8 119 150 198 191 171 170 154 145 143 140 139 135 135 132 127 124 126 123 114 110 108 95 85 79 71 64 55 45 43 39 37 37 38 43 45
75 78 7 279 292 12 1 346 358 53 187 177 182 165 186 177 163 156 147 143 137 137 138 137 135 131 123 116 113 109 99 85 82 78 68 59 52 50 48 46 43 44 45 48
53 74 24 343 334 30 32 18 22 31 50 102 111 94 139 137 139 148 152 149 147 146 146 141 137 134 134 134 129 115 102 95 89 83 75 68 61 58 54 52 51 50 45 41
31 78 52 323 320 31 32 8 38 46 31 83 105 144 136 133 149 158 155 151 152 150 146 143 142 141 143 139 137 129 120 110 99 89 85 81 72 63 57 63 57 53 48 47
137 89 95 347 14 54 178 10 62 76 41 60 95 114 121 128 119 113 137 142 146 146 145 144 141 140 139 133 132 127 119 109 103 94 89 87 80 72 64 64 58 54 51 51
155 131 95 71 32 341 16 350 340 111 48 61 101 101 103 109 91 76 104 129 139 141 141 142 143 136 134 134 132 121 108 100 94 95 100 99 94 83 74 69 61 57 61 56
81 92 103 82 69 310 312 317 317 111 66 55 118 127 134 125 129 169 139 123 122 125 130 133 131 125 128 134 127 120 116 106 100 100 103 107 98 92 84 77 69 63 69 67
44 46 80 107 135 316 313 319 11 93 236 213 148 150 148 147 158 144 132 126 128 130 131 128 127 130 140 138 129 125 121 123 123 107 97 95 88 90 86 73 65 71 69 67
87 75 56 86 90 282 323 9 55 198 195 129 125 126 115 110 115 124 129 129 130 128 128 127 127 129 134 135 129 127 134 138 119 104 96 89 76 73 82 80 69 70 78 74
61 144 159 143 190 241 356 73 231 131 115 117 126 130 126 123 128 129 130 133 135 136 134 127 127 122 118 130 132 133 145 134 116 104 99 88 71 63 67 80 82 75 78 83
350 41 85 70 52 55 50 62 69 90 113 124 133 135 129 128 134 134 135 134 134 135 134 132 128 126 123 126 130 139 137 126 119 113 105 96 83 67 55 54 67 81 85 100
299 47 74 74 94 40 32 71 97 93 106 113 121 127 130 131 135 136 138 140 139 137 136 136 138 140 143 134 130 134 130 123 118 114 109 102 93 91 74 61 49 69 60 135
315 140 137 203 224 175 223 168 126 122 126 129 127 122 125 134 137 137 141 143 142 141 135 133 134 135 138 135 134 134 133 130 126 119 116 113 109 101 98 93 61 40 52 72
Height
1494 1499 1503 1499 1497 1500 1500 1503 1504 1497 1491 1497 1505 1511 1515 1517 1518 1519 1522 1524 1527 1530 1532 1532 1533 1533 1534 1534 1533 1533 1534 1534 1534 1534 1534 1535 1535 1535 1536 1536 1537 1537 1537 1537
1500 1502 1493 1490 1491 1494 1497 1502 1501 1495 1490 1497 1508 1514 1516 1518 1519 1520 1522 1525 1527 1530 1532 1533 1533 1534 1533 1533 1533 1533 1533 1533 1533 1533 1533 1533 1533 1533 1533 1533 1533 1534 1534 1534
1501 1494 1486 1489 1491 1493 1494 1498 1497 1498 1495 1497 1507 1521 1522 1523 1523 1523 1524 1526 1528 1529 1532 1533 1534 1534 1534 1533 1533 1533 1533 1532 1532 1531 1531 1531 1531 1531 1531 1531 1531 1531 1531 1531
1494 1486 1485 1487 1488 1489 1497 1488 1489 1493 1504 1515 1513 1534 1528 1525 1524 1524 1526 1528 1529 1531 1533 1534 1535 1535 1535 1534 1534 1533 1533 1532 1531 1531 1531 1530 1530 1530 1530 1529 1529 1528 1528 1528
1492 1485 1485 1487 1485 1484 1489 1484 1488 1494 1505 1517 1520 1531 1533 1526 1526 1525 1525 1527 1530 1532 1533 1535 1536 1536 1536 1535 1535 1534 1533 1532 1531 1531 1530 1529 1529 1528 1528 1527 1526 1526 1526 1525
1487 1481 1482 1482 1479 1480 1482 1488 1496 1505 1514 1530 1528 1530 1534 1528 1522 1521 1524 1527 1530 1532 1533 1535 1536 1536 1536 1536 1535 1535 1534 1533 1532 1530 1529 1528 1528 1527 1526 1525 1525 1524 1523 1523
1492 1485 1481 1480 1483 1483 1487 1504 1523 1527 1537 1536 1525 1528 1530 1519 1516 1517 1521 1526 1530 1532 1533 1535 1535 1536 1537 1537 1536 1536 1535 1533 1532 1530 1529 1528 1527 1526 1525 1524 1524 1523 1522 1521
1504 1503 1487 1483 1486 1491 1492 1502 1524 1535 1538 1536 1528 1530 1524 1515 1513 1515 1520 1525 1529 1532 1533 1534 1535 1536 1537 1537 1537 1537 1535 1534 1532 1531 1529 1528 1527 1525 1524 1523 1523 1522 1521 1520
1503 1502 1485 1482 1481 1485 1494 1503 1504 1521 1530 1539 1535 1527 1520 1515 1515 1517 1521 1525 1529 1531 1533 1534 1536 1537 1537 1538 1538 1537 1536 1534 1533 1531 1530 1528 1527 1526 1524 1523 1522 1521 1520 1519
1494 1500 1490 1484 1482 1485 1490 1497 1511 1522 1535 1541 1535 1530 1526 1518 1518 1519 1522 1525 1528 1531 1533 1534 1536 1538 1539 1539 1538 1538 1537 1535 1534 1533 1531 1529 1528 1526 1525 1524 1522 1521 1519 1518
1492 1502 1499 1492 1495 1497 1496 1501 1509 1519 1524 1536 1542 1533 1512 1512 1515 1518 1522 1524 1527 1529 1531 1533 1536 1538 1539 1540 1540 1539 1538 1536 1535 1534 1532 1531 1529 1528 1526 1524 1522 1521 1519 1518
1494 1504 1509 1501 1493 1489 1493 1499 1508 1520 1523 1525 1532 1530 1508 1509 1513 1517 1521 1525 1527 1529 1531 1533 1536 1538 1539 1540 1540 1539 1538 1537 1536 1535 1534 1532 1530 1529 1527 1525 1523 1522 1520 1519
1494 1506 1518 1514 1508 1498 1498 1497 1501 1510 1519 1524 1529 1525 1511 1511 1513 1516 1519 1523 1527 1530 1532 1534 1537 1538 1540 1540 1540 1540 1539 1538 1537 1536 1534 1533 1531 1530 1528 1527 1525 1524 1522 1520
1492 1505 1515 1521 1516 1506 1504 1500 1499 1507 1519 1520 1516 1517 1515 1514 1515 1517 1519 1523 1527 1530 1532 1535 1537 1539 1540 1540 1540 1540 1539 1538 1537 1536 1535 1534 1532 1531 1530 1528 1527 1526 1524 1523
1495 1507 1505 1505 1501 1501 1502 1501 1498 1502 1506 1512 1511 1511 1511 1512 1515 1517 1520 1524 1527 1530 1532 1535 1537 1539 1540 1541 1541 1541 1540 1539 1538 1537 1536 1535 1533 1532 1531 1530 1529 1528 1526 1525
1500 1507 1506 1506 1500 1501 1505 1503 1501 1501 1503 1505 1507 1512 1510 1512 1516 1519 1521 1524 1527 1530 1533 1535 1537 1539 1540 1541 1542 1542 1541 1540 1539 1538 1537 1536 1535 1534 1533 1532 1531 1530 1529 1527
1505 1508 1513 1515 1505 1503 1515 1512 1508 1509 1507 1507 1511 1513 1512 1515 1517 1519 1521 1523 1527 1530 1533 1536 1538 1539 1540 1541 1542 1542 1542 1541 1540 1539 1538 1538 1537 1536 1535 1534 1533 1532 1531 1530
1506 1509 1516 1518 1514 1522 1521 1511 1509 1511 1512 1509 1510 1512 1514 1516 1518 1520 1522 1524 1527 1530 1533 1535 1537 1539 1540 1541 1542 1542 1542 1542 1541 1540 1540 1539 1539 1538 1537 1536 1535 1535 1534 1533
1501 1508 1516 1522 1523 1520 1516 1512 1511 1512 1516 1514 1513 1515 1517 1519 1521 1524 1525 1525 1528 1530 1533 1535 1537 1539 1540 1541 1542 1543 1543 1543 1542 1542 1541 1541 1541 1540 1539 1539 1538 1538 1537 1536
1503 1506 1516 1521 1523 1525 1521 1511 1508 1511 1519 1516 1515 1516 1518 1519 1524 1526 1526 1527 1529 1531 1534 1536 1538 1539 1541 1542 1543 1543 1543 1543 1543 1543 1543 1543 1543 1542 1542 1541 1541 1541 1540 1540
1512 1515 1519 1522 1525 1522 1517 1511 1509 1520 1523 1517 1516 1517 1518 1519 1521 1524 1526 1528 1530 1533 1535 1537 1538 1540 1541 1542 1543 1544 1544 1544 1545 1545 1545 1545 1545 1545 1544 1544 1544 1544 1543 1543
1518 1521 1523 1524 1528 1529 1516 1513 1516 1518 1515 1515 1516 1517 1519 1519 1521 1524 1527 1529 1531 1533 1536 1537 1539 1540 1542 1543 1544 1544 1545 1546 1546 1547 1547 1547 1547 1547 1547 1547 1547 1547 1547 1547
1518 1520 1522 1524 1527 1521 1517 1517 1516 1515 1515 1516 1517 1518 1519 1521 1523 1526 1528 1531 1533 1535 1537 1538 1539 1541 1542 1543 1544 1545 1546 1547 1547 1548 1548 1549 1549 1549 1549 1549 1549 1549 1550 1550
1518 1516 1519 1522 1521 1519 1519 1518 1517 1517 1517 1518 1518 1519 1521 1522 1524 1527 1529 1532 1534 1536 1537 1539 1540 1541 1543 1544 1545 1546 1547 1548 1549 1550 1550 1551 1551 1551 1552 1552 1552 1552 1552 1552
1519 1518 1521 1522 1521 1520 1520 1519 1519 1518 1519 1519 1520 1521 1522 1523 1526 1528 1530 1533 1535 1536 1538 1540 1541 1542 1544 1545 1546 1547 1548 1549 1550 1551 1552 1553 1553 1553 1554 1554 1554 1555 1555 1555
1519 1519 1522 1523 1520 1521 1521 1520 1519 1519 1520 1520 1521 1523 1524 1525 1527 1529 1531 1533 1536 1537 1539 1541 1542 1544 1545 1547 1548 1549 1550 1551 1552 1553 1554 1555 1555 1556 1556 1556 1557 1557 1558 1558